Theta_e
312 310 309 310 310 310 309 310 313 313 313 313 313 313 313 310 308 309 309 307 307 307
310 310 309 311 311 310 311 311 312 313 313 313 313 313 312 309 308 307 309 307 307 306
309 310 311 311 311 311 312 312 312 312 313 313 313 313 312 310 310 308 306 307 305 305
310 310 311 311 311 311 312 312 312 312 312 312 312 312 311 311 309 307 307 307 307 307
310 310 310 311 311 312 311 313 312 312 312 312 311 311 309 309 307 305 305 307 307 305
309 310 310 311 312 312 312 312 312 312 311 311 310 309 309 309 308 306 306 306 306 306
309 310 311 312 312 312 312 312 312 311 310 308 308 308 309 309 309 309 304 306 306 306
310 311 311 311 311 311 312 311 311 309 309 308 307 305 307 309 310 307 303 304 306 306
309 310 310 309 309 310 311 311 311 310 309 307 306 301 301 306 307 304 301 302 305 306
308 308 308 307 307 308 309 309 309 308 308 307 308 299 299 301 308 303 302 300 302 305
307 307 306 306 306 307 306 306 306 306 305 303 302 299 298 299 308 303 301 302 305 304
306 306 305 304 304 304 304 304 304 304 303 302 302 298 297 300 308 306 305 305 305 304
305 304 302 302 301 302 303 303 302 301 301 300 302 298 296 299 305 304 303 305 303 301
302 300 298 299 299 301 302 301 300 299 300 300 300 299 296 297 303 300 301 299 299 300
Wind_Speed
7 6 7 7 8 7 7 7 8 8 8 8 9 8 7 7 6 7 6 8 7 8
9 9 8 9 7 6 8 7 8 8 8 9 8 7 7 6 7 7 7 7 7 6
7 7 8 8 9 9 9 9 9 9 8 7 6 6 6 5 6 6 5 5 7 5
8 8 8 8 8 8 9 8 8 7 7 6 6 6 5 5 5 7 6 7 8 9
8 8 8 8 9 8 8 8 7 7 6 6 5 6 6 6 5 5 7 8 9 9
7 7 8 8 7 7 7 7 6 6 6 6 6 7 6 6 5 5 5 6 8 10
7 7 8 7 7 7 7 7 6 5 5 5 6 6 7 7 7 4 3 6 7 9
8 7 7 8 8 8 7 6 5 4 4 5 5 7 10 9 7 3 3 5 7 8
8 8 8 8 8 8 8 6 5 5 6 6 4 11 12 9 4 4 3 5 8 9
8 7 6 8 9 9 9 8 7 7 7 7 7 11 12 12 3 3 3 5 7 8
8 6 7 8 9 9 7 8 8 8 7 6 6 11 12 13 4 2 2 5 8 9
8 6 7 8 9 8 8 7 7 6 8 8 8 10 12 10 5 4 6 6 8 9
5 6 8 8 7 7 7 6 6 7 6 6 9 10 12 7 4 6 6 6 9 10
6 6 5 4 5 8 8 7 7 6 5 6 8 8 10 12 7 6 6 6 6 6
Wind_Direction
352 333 317 320 328 325 313 308 315 299 303 312 319 323 323 327 326 311 319 311 307 317
347 340 330 319 302 291 296 300 292 301 304 309 315 322 337 340 336 328 358 339 333 340
326 313 310 302 295 292 292 292 296 296 293 301 314 324 322 343 9 358 358 3 343 343
314 314 306 300 303 303 299 297 295 297 299 302 306 323 313 341 354 358 5 2 352 349
317 315 313 313 312 305 300 307 303 303 300 304 318 331 321 322 341 345 347 352 346 344
325 321 321 319 314 307 307 309 314 323 323 339 343 330 328 316 318 334 344 340 352 342
328 325 323 321 321 330 335 336 349 3 17 357 340 346 336 317 305 308 355 334 343 340
325 315 326 341 345 346 353 3 6 7 358 1 0 11 340 332 309 347 354 331 335 339
319 337 347 347 344 345 357 353 335 343 344 355 358 358 343 345 3 86 22 338 332 333
329 332 353 345 347 357 359 355 343 346 352 345 348 2 344 347 27 89 35 327 321 334
326 342 356 358 5 6 358 0 350 350 359 359 354 356 344 335 14 123 280 308 339 339
335 350 3 14 8 356 347 347 344 352 4 3 353 3 342 339 30 10 356 356 4 347
12 17 20 19 4 349 354 344 355 353 358 351 1 10 352 350 24 19 8 18 5 352
24 33 27 3 355 351 355 359 0 358 357 4 24 12 12 14 33 19 13 2 347 1